Location: Navarre
(52.9016°N, 113.4144°W)
Time: 11:56:58
(UTC+00:00)

Envisat - Pass Details

Date: 07 December 2021
Orbit: 764 x 766 km, 98.2° (Epoch: 23 January)

Event Time Altitude Azimuth Distance (km) Brightness Sun altitude
Rises 13:38:09 0° 10° (N) 3,248 6.2 -16.0°
Reaches altitude 10° 13:40:34 10° 4° (N) 2,317 5.4 -15.7°
Maximum altitude 13:45:20 41° 295° (WNW) 1,106 3.3 -15.0°
Drops below altitude 10° 13:50:03 10° 227° (SW) 2,301 5.2 -14.3°
Sets 13:52:27 0° 220° (SW) 3,223 6.0 -14.0°
